Time,TemperatureF,DewpointF,PressureIn,WindDirection,WindDirectionDegrees,WindSpeedMPH,WindSpeedGustMPH,Humidity,HourlyPrecipIn,Conditions,Clouds,dailyrainin,SolarRadiationWatts/m^2,SoftwareType,DateUTC
2013-02-16 00:03:00,46.2,43.1,29.99,SE,124,0.0,0.0,89,0.06,-RA,,0.00,0.0,WeatherDisplay:10.37,2013-02-15 23:03:00,
2013-02-16 00:08:00,46.1,43.0,29.99,West,261,1.1,1.1,89,0.06,-RA,,0.01,0.0,WeatherDisplay:10.37,2013-02-15 23:08:00,
2013-02-16 00:13:00,46.1,43.0,29.99,NE,53,2.3,2.3,89,0.06,-RA,,0.01,0.0,WeatherDisplay:10.37,2013-02-15 23:13:00,
2013-02-16 00:18:00,45.9,43.1,30.00,East,80,1.1,1.1,90,0.06,-RA,,0.02,0.0,WeatherDisplay:10.37,2013-02-15 23:18:00,
2013-02-16 00:23:00,45.8,43.0,30.00,WSW,244,2.3,2.3,90,0.06,-RA,,0.02,0.0,WeatherDisplay:10.37,2013-02-15 23:23:00,
2013-02-16 00:28:00,45.8,43.0,29.99,East,84,3.5,3.5,90,0.06,-RA,,0.02,0.0,WeatherDisplay:10.37,2013-02-15 23:28:00,
2013-02-16 00:33:00,45.9,43.1,29.99,WSW,239,2.3,2.3,90,0.05,-RA,,0.02,0.0,WeatherDisplay:10.37,2013-02-15 23:33:00,
2013-02-16 00:38:00,45.9,43.1,30.00,NW,309,1.1,0.0,90,0.04,-RA,,0.03,0.0,WeatherDisplay:10.37,2013-02-15 23:38:00,
2013-02-16 00:43:00,45.9,43.4,30.00,WSW,253,1.1,1.1,91,0.05,-RA,,0.03,0.0,WeatherDisplay:10.37,2013-02-15 23:43:00,
2013-02-16 00:48:00,46.1,43.6,29.99,WSW,249,2.3,2.3,91,0.04,-RA,,0.03,0.0,WeatherDisplay:10.37,2013-02-15 23:48:00,
2013-02-16 00:53:00,46.1,43.6,30.00,West,277,1.1,1.1,91,0.04,-RA,,0.03,0.0,WeatherDisplay:10.37,2013-02-15 23:53:00,
2013-02-16 00:58:00,46.0,43.5,29.99,WSW,258,1.1,1.1,91,0.05,-RA,,0.04,0.0,WeatherDisplay:10.37,2013-02-15 23:58:00,
2013-02-16 01:03:00,46.0,43.5,30.00,SSW,200,2.3,2.3,91,0.04,-RA,,0.04,0.0,WeatherDisplay:10.37,2013-02-16 00:03:00,
2013-02-16 01:08:00,45.9,43.4,29.99,NE,41,1.1,1.1,91,0.03,-RA,,0.04,0.0,WeatherDisplay:10.37,2013-02-16 00:08:00,
2013-02-16 01:13:00,45.8,43.3,30.00,ESE,121,2.3,2.3,91,0.03,-RA,,0.04,0.0,WeatherDisplay:10.37,2013-02-16 00:13:00,
2013-02-16 01:18:00,45.7,43.2,30.00,ESE,111,1.1,1.1,91,0.02,-RA,,0.04,0.0,WeatherDisplay:10.37,2013-02-16 00:18:00,
2013-02-16 01:23:00,45.5,43.0,30.00,East,93,2.3,2.3,91,0.03,-RA,,0.05,0.0,WeatherDisplay:10.37,2013-02-16 00:23:00,
2013-02-16 01:28:00,45.4,42.9,29.99,NNE,31,4.6,4.6,91,0.02,-RA,,0.05,0.0,WeatherDisplay:10.37,2013-02-16 00:28:00,
2013-02-16 01:33:00,45.4,42.9,29.99,SSE,168,3.5,3.5,91,0.02,-RA,,0.05,0.0,WeatherDisplay:10.37,2013-02-16 00:33:00,
2013-02-16 01:38:00,45.3,42.8,29.99,SSE,163,5.8,5.8,91,0.02,-RA,,0.06,0.0,WeatherDisplay:10.37,2013-02-16 00:38:00,
2013-02-16 01:43:00,45.3,42.8,29.99,NE,38,8.1,8.1,91,0.02,RA,,0.06,0.0,WeatherDisplay:10.37,2013-02-16 00:43:00,
2013-02-16 01:48:00,45.3,42.8,29.99,East,91,9.2,9.2,91,0.02,RA,,0.06,0.0,WeatherDisplay:10.37,2013-02-16 00:48:00,
2013-02-16 01:53:00,45.2,42.7,29.99,SE,143,6.9,6.9,91,0.02,BKN,,0.06,0.0,WeatherDisplay:10.37,2013-02-16 00:53:00,
2013-02-16 01:58:00,45.2,42.7,29.99,SE,146,8.1,8.1,91,0.02,BKN,,0.06,0.0,WeatherDisplay:10.37,2013-02-16 00:58:00,
2013-02-16 02:04:00,45.1,42.6,29.99,South,170,6.9,6.9,91,0.02,BKN,,0.06,0.0,WeatherDisplay:10.37,2013-02-16 01:04:00,
2013-02-16 02:09:00,45.0,42.5,29.99,NNE,29,10.4,10.4,91,0.02,RA,,0.06,0.0,WeatherDisplay:10.37,2013-02-16 01:09:00,
2013-02-16 02:14:00,45.0,42.5,29.99,ENE,72,10.4,10.4,91,0.02,RA,,0.06,0.0,WeatherDisplay:10.37,2013-02-16 01:14:00,
2013-02-16 02:19:00,44.9,42.4,29.98,SW,236,6.9,6.9,91,0.02,BKN,,0.06,0.0,WeatherDisplay:10.37,2013-02-16 01:19:00,
2013-02-16 02:24:00,44.7,42.2,29.99,NNE,26,6.9,6.9,91,0.02,BKN,,0.06,0.0,WeatherDisplay:10.37,2013-02-16 01:24:00,
2013-02-16 02:29:00,44.7,41.9,29.98,SSW,198,8.1,8.1,90,0.02,BKN,,0.06,0.0,WeatherDisplay:10.37,2013-02-16 01:29:00,
2013-02-16 02:34:00,44.6,41.8,29.98,ENE,69,6.9,6.9,90,0.02,BKN,,0.06,0.0,WeatherDisplay:10.37,2013-02-16 01:34:00,
2013-02-16 02:39:00,44.6,41.8,29.98,ENE,73,8.1,8.1,90,0.02,BKN,,0.06,0.0,WeatherDisplay:10.37,2013-02-16 01:39:00,
2013-02-16 02:44:00,44.5,41.7,29.98,South,172,6.9,6.9,90,0.01,BKN,,0.06,0.0,WeatherDisplay:10.37,2013-02-16 01:44:00,
2013-02-16 02:49:00,44.6,41.8,29.98,WNW,300,5.8,5.8,90,0.01,BKN,,0.06,0.0,WeatherDisplay:10.37,2013-02-16 01:49:00,
2013-02-16 02:54:00,44.6,41.8,29.98,SSE,154,6.9,6.9,90,0.01,BKN,,0.06,0.0,WeatherDisplay:10.37,2013-02-16 01:54:00,
2013-02-16 02:59:00,44.6,41.8,29.98,SSE,148,5.8,5.8,90,0.01,BKN,,0.06,0.0,WeatherDisplay:10.37,2013-02-16 01:59:00,
2013-02-16 03:04:00,44.6,41.8,29.98,NE,52,4.6,4.6,90,0.01,BKN,,0.06,0.0,WeatherDisplay:10.37,2013-02-16 02:04:00,
2013-02-16 03:09:00,44.5,41.7,29.98,SSW,200,4.6,4.6,90,0.00,BKN,,0.06,0.0,WeatherDisplay:10.37,2013-02-16 02:09:00,
2013-02-16 03:14:00,44.4,41.7,29.98,SSE,167,5.0,5.0,90,0.00,BKN,,0.06,0.0,WeatherDisplay:10.37,2013-02-16 02:14:00,
2013-02-16 03:19:00,44.4,41.4,29.97,SW,226,6.0,6.0,89,0.00,BKN,,0.06,0.0,WeatherDisplay:10.37,2013-02-16 02:19:00,
2013-02-16 03:24:00,44.3,41.3,29.97,South,187,6.0,6.0,89,0.00,BKN,,0.06,0.0,WeatherDisplay:10.37,2013-02-16 02:24:00,
2013-02-16 03:29:00,44.4,41.4,29.97,SSW,202,6.9,6.9,89,0.00,BKN,,0.06,0.0,WeatherDisplay:10.37,2013-02-16 02:29:00,
2013-02-16 03:34:00,44.4,41.4,29.97,ESE,123,5.8,5.8,89,0.00,BKN,,0.06,0.0,WeatherDisplay:10.37,2013-02-16 02:34:00,
2013-02-16 03:39:00,44.4,41.1,29.97,SE,131,6.9,6.9,88,0.00,BKN,,0.06,0.0,WeatherDisplay:10.37,2013-02-16 02:39:00,
2013-02-16 03:44:00,44.4,41.1,29.97,WNW,286,11.5,11.5,88,0.00,BKN,,0.06,0.0,WeatherDisplay:10.37,2013-02-16 02:44:00,
2013-02-16 03:49:00,44.4,41.1,29.97,East,91,8.1,8.1,88,0.00,BKN,,0.06,0.0,WeatherDisplay:10.37,2013-02-16 02:49:00,
2013-02-16 03:54:00,44.4,41.1,29.96,SW,218,4.6,4.6,88,0.00,BKN,,0.06,0.0,WeatherDisplay:10.37,2013-02-16 02:54:00,
2013-02-16 03:59:00,44.4,41.1,29.96,ENE,67,5.8,5.8,88,0.00,BKN,,0.06,0.0,WeatherDisplay:10.37,2013-02-16 02:59:00,
2013-02-16 04:04:00,44.2,40.9,29.96,SE,130,5.8,5.8,88,0.00,BKN,,0.06,0.0,WeatherDisplay:10.37,2013-02-16 03:04:00,
2013-02-16 04:09:00,44.1,40.8,29.96,NW,311,5.8,5.8,88,0.00,BKN,,0.06,0.0,WeatherDisplay:10.37,2013-02-16 03:09:00,
2013-02-16 04:14:00,44.0,40.4,29.96,ESE,102,6.9,6.9,87,0.00,BKN,,0.06,0.0,WeatherDisplay:10.37,2013-02-16 03:14:00,
2013-02-16 04:19:00,44.0,40.4,29.96,SSE,165,5.8,5.8,87,0.00,BKN,,0.06,0.0,WeatherDisplay:10.37,2013-02-16 03:19:00,
2013-02-16 04:24:00,44.0,40.4,29.96,West,266,5.8,5.8,87,0.00,BKN,,0.06,0.0,WeatherDisplay:10.37,2013-02-16 03:24:00,
2013-02-16 04:29:00,43.9,40.3,29.96,WSW,246,5.8,5.8,87,0.00,BKN,,0.06,0.0,WeatherDisplay:10.37,2013-02-16 03:29:00,
2013-02-16 04:34:00,43.9,40.3,29.96,SSW,198,6.9,6.9,87,0.00,BKN,,0.06,0.0,WeatherDisplay:10.37,2013-02-16 03:34:00,
2013-02-16 04:39:00,43.9,40.3,29.96,SSE,149,6.9,6.9,87,0.00,BKN,,0.06,0.0,WeatherDisplay:10.37,2013-02-16 03:39:00,
2013-02-16 04:44:00,44.0,40.4,29.96,ENE,74,7.0,7.0,87,0.00,BKN,,0.06,0.0,WeatherDisplay:10.37,2013-02-16 03:44:00,
2013-02-16 04:49:00,44.0,40.4,29.96,West,266,5.8,5.8,87,0.00,BKN,,0.06,0.0,WeatherDisplay:10.37,2013-02-16 03:49:00,
2013-02-16 04:54:00,44.1,40.2,29.96,East,94,6.0,6.0,86,0.00,BKN,,0.06,0.0,WeatherDisplay:10.37,2013-02-16 03:54:00,
2013-02-16 04:59:00,44.3,40.4,29.96,NNW,334,7.0,7.0,86,0.00,BKN,,0.06,0.0,WeatherDisplay:10.37,2013-02-16 03:59:00,
2013-02-16 05:04:00,44.2,40.3,29.96,East,101,5.0,5.0,86,0.00,BKN,,0.06,0.0,WeatherDisplay:10.37,2013-02-16 04:04:00,
2013-02-16 05:09:00,44.2,40.3,29.96,West,266,5.8,5.8,86,0.00,BKN,,0.06,0.0,WeatherDisplay:10.37,2013-02-16 04:09:00,
2013-02-16 05:14:00,44.2,40.3,29.96,West,269,5.8,5.8,86,0.00,BKN,,0.06,0.0,WeatherDisplay:10.37,2013-02-16 04:14:00,
2013-02-16 05:19:00,44.2,40.0,29.97,West,269,3.5,3.5,85,0.00,BKN,,0.06,0.0,WeatherDisplay:10.37,2013-02-16 04:19:00,
2013-02-16 05:24:00,44.2,40.0,29.97,WSW,249,4.6,4.6,85,0.00,BKN,,0.06,0.0,WeatherDisplay:10.37,2013-02-16 04:24:00,
2013-02-16 05:29:00,44.3,40.1,29.97,WNW,302,5.0,5.0,85,0.00,BKN,,0.06,0.0,WeatherDisplay:10.37,2013-02-16 04:29:00,
2013-02-16 05:34:00,44.3,40.1,29.97,WSW,247,8.1,8.1,85,0.00,BKN,,0.06,0.0,WeatherDisplay:10.37,2013-02-16 04:34:00,
2013-02-16 05:39:00,44.2,40.0,29.97,West,265,6.9,6.9,85,0.00,BKN,,0.06,0.0,WeatherDisplay:10.37,2013-02-16 04:39:00,
2013-02-16 05:44:00,44.1,39.9,29.97,NNE,18,6.9,6.9,85,0.00,BKN,,0.06,0.0,WeatherDisplay:10.37,2013-02-16 04:44:00,
2013-02-16 05:49:00,44.1,39.9,29.97,WSW,246,5.8,5.8,85,0.00,BKN,,0.06,0.0,WeatherDisplay:10.37,2013-02-16 04:49:00,
2013-02-16 05:54:00,44.1,39.9,29.97,South,173,4.6,4.6,85,0.00,BKN,,0.06,0.0,WeatherDisplay:10.37,2013-02-16 04:54:00,
2013-02-16 05:59:00,44.2,40.0,29.97,North,5,6.0,6.0,85,0.00,BKN,,0.06,0.0,WeatherDisplay:10.37,2013-02-16 04:59:00,
2013-02-16 06:00:00,44.1,39.9,29.97,WSW,252,6.9,6.9,85,0.00,BKN,,0.06,0.0,WeatherDisplay:10.37,2013-02-16 05:00:00,
2013-02-16 06:05:00,44.2,40.0,29.97,West,267,5.8,5.8,85,0.00,BKN,,0.06,0.0,WeatherDisplay:10.37,2013-02-16 05:05:00,
2013-02-16 06:10:00,44.4,39.9,29.97,NNW,332,5.8,5.8,84,0.00,BKN,,0.06,0.0,WeatherDisplay:10.37,2013-02-16 05:10:00,
2013-02-16 06:15:00,44.4,39.9,29.97,West,259,3.5,3.5,84,0.00,BKN,,0.06,0.0,WeatherDisplay:10.37,2013-02-16 05:15:00,
2013-02-16 06:20:00,44.3,39.8,29.97,SSW,194,3.5,3.5,84,0.00,BKN,,0.06,0.0,WeatherDisplay:10.37,2013-02-16 05:20:00,
2013-02-16 06:23:00,44.3,39.8,29.97,SE,128,3.5,3.5,84,0.00,BKN,,0.06,0.0,WeatherDisplay:10.37,2013-02-16 05:23:00,
2013-02-16 06:28:00,44.3,39.8,29.97,North,351,9.2,9.2,84,0.00,BKN,,0.06,0.0,WeatherDisplay:10.37,2013-02-16 05:28:00,
2013-02-16 06:33:00,44.3,39.5,29.97,ENE,70,9.2,9.2,83,0.00,BKN,,0.06,0.0,WeatherDisplay:10.37,2013-02-16 05:33:00,
2013-02-16 06:38:00,44.2,39.7,29.98,ENE,68,10.4,10.4,84,0.00,BKN,,0.06,0.0,WeatherDisplay:10.37,2013-02-16 05:38:00,
2013-02-16 06:43:00,44.2,39.4,29.98,NE,53,5.8,5.8,83,0.00,BKN,,0.06,0.0,WeatherDisplay:10.37,2013-02-16 05:43:00,
2013-02-16 06:48:00,44.1,39.3,29.98,NNE,33,9.0,9.0,83,0.00,BKN,,0.06,0.0,WeatherDisplay:10.37,2013-02-16 05:48:00,
2013-02-16 06:53:00,44.0,39.2,29.98,NNE,22,4.6,4.6,83,0.00,BKN,,0.06,0.0,WeatherDisplay:10.37,2013-02-16 05:53:00,
2013-02-16 06:58:00,43.8,39.3,29.98,NE,45,3.5,3.5,84,0.00,BKN,,0.06,0.0,WeatherDisplay:10.37,2013-02-16 05:58:00,
2013-02-16 07:03:00,43.8,39.3,29.98,NE,38,9.2,9.2,84,0.00,BKN,,0.06,5.0,WeatherDisplay:10.37,2013-02-16 06:03:00,
2013-02-16 07:08:00,43.8,39.3,29.98,NNW,329,3.5,3.5,84,0.00,BKN,,0.06,9.0,WeatherDisplay:10.37,2013-02-16 06:08:00,
2013-02-16 07:13:00,43.8,39.6,29.98,SSE,149,4.6,4.6,85,0.00,BKN,,0.06,12.0,WeatherDisplay:10.37,2013-02-16 06:13:00,
2013-02-16 07:18:00,44.2,40.0,29.98,ESE,108,7.0,7.0,85,0.00,BKN,,0.06,16.0,WeatherDisplay:10.37,2013-02-16 06:18:00,
2013-02-16 07:23:00,44.5,40.0,29.98,SE,141,3.5,3.5,84,0.00,BKN,,0.06,19.0,WeatherDisplay:10.37,2013-02-16 06:23:00,
2013-02-16 07:28:00,44.6,40.1,29.99,West,263,3.5,3.5,84,0.00,BKN,,0.06,23.0,WeatherDisplay:10.37,2013-02-16 06:28:00,
2013-02-16 07:33:00,44.5,39.7,29.99,NW,315,4.6,4.6,83,0.00,BKN,,0.06,26.0,WeatherDisplay:10.37,2013-02-16 06:33:00,
2013-02-16 07:38:00,44.6,39.8,29.99,ENE,59,5.0,5.0,83,0.00,BKN,,0.06,32.0,WeatherDisplay:10.37,2013-02-16 06:38:00,
2013-02-16 07:43:00,45.0,40.1,29.99,NE,43,5.8,5.8,83,0.00,BKN,,0.06,74.0,WeatherDisplay:10.37,2013-02-16 06:43:00,
2013-02-16 07:48:00,45.3,40.4,29.99,ENE,71,8.0,8.0,83,0.00,BKN,,0.06,88.0,WeatherDisplay:10.37,2013-02-16 06:48:00,
2013-02-16 07:53:00,45.6,40.4,30.00,ESE,113,8.1,8.1,82,0.00,BKN,,0.06,104.0,WeatherDisplay:10.37,2013-02-16 06:53:00,
2013-02-16 07:58:00,45.7,40.5,30.00,SSW,204,6.9,6.9,82,0.00,BKN,,0.06,40.0,WeatherDisplay:10.37,2013-02-16 06:58:00,
2013-02-16 08:03:00,45.5,40.3,30.00,WSW,243,4.6,4.6,82,0.00,BKN,,0.06,40.0,WeatherDisplay:10.37,2013-02-16 07:03:00,
2013-02-16 08:08:00,45.4,40.2,30.00,NE,38,8.1,8.1,82,0.00,BKN,,0.06,56.0,WeatherDisplay:10.37,2013-02-16 07:08:00,
2013-02-16 08:13:00,45.7,40.8,30.00,SSW,211,3.5,3.5,83,0.00,BKN,,0.06,160.0,WeatherDisplay:10.37,2013-02-16 07:13:00,
2013-02-16 08:18:00,46.1,40.9,30.00,WSW,244,3.5,3.5,82,0.00,BKN,,0.06,178.0,WeatherDisplay:10.37,2013-02-16 07:18:00,
2013-02-16 08:23:00,46.5,41.3,30.00,NNW,331,3.5,3.5,82,0.00,BKN,,0.06,192.0,WeatherDisplay:10.37,2013-02-16 07:23:00,
2013-02-16 08:28:00,46.9,41.4,30.00,SSW,208,9.2,9.2,81,0.00,BKN,,0.06,169.0,WeatherDisplay:10.37,2013-02-16 07:28:00,
2013-02-16 08:33:00,47.0,41.1,30.00,West,269,6.9,6.9,80,0.00,BKN,,0.06,67.0,WeatherDisplay:10.37,2013-02-16 07:33:00,
2013-02-16 08:38:00,47.0,41.1,30.01,East,88,5.0,5.0,80,0.00,BKN,,0.06,98.0,WeatherDisplay:10.37,2013-02-16 07:38:00,
2013-02-16 08:43:00,47.0,41.1,30.01,ESE,119,6.9,6.9,80,0.00,SCT,,0.06,111.0,WeatherDisplay:10.37,2013-02-16 07:43:00,
2013-02-16 08:48:00,47.1,41.2,30.01,ENE,59,4.6,4.6,80,0.00,SCT,,0.06,104.0,WeatherDisplay:10.37,2013-02-16 07:48:00,
2013-02-16 08:53:00,47.2,41.0,30.01,ESE,102,12.7,12.7,79,0.00,SCT,,0.06,116.0,WeatherDisplay:10.37,2013-02-16 07:53:00,
2013-02-16 08:58:00,47.6,41.1,30.01,ENE,69,10.4,10.4,78,0.00,SCT,,0.06,114.0,WeatherDisplay:10.37,2013-02-16 07:58:00,
2013-02-16 09:03:00,47.8,40.9,30.01,ESE,121,8.1,8.1,77,0.00,FEW,,0.06,125.0,WeatherDisplay:10.37,2013-02-16 08:03:00,
2013-02-16 09:08:00,47.9,41.0,30.01,ESE,117,11.5,11.5,77,0.01,RA,,0.07,120.0,WeatherDisplay:10.37,2013-02-16 08:08:00,
2013-02-16 09:13:00,48.0,41.1,30.01,ENE,65,9.2,9.2,77,0.01,RA,,0.07,135.0,WeatherDisplay:10.37,2013-02-16 08:13:00,
2013-02-16 09:18:00,48.1,40.9,30.01,East,97,12.7,12.7,76,0.01,FEW,,0.07,158.0,WeatherDisplay:10.37,2013-02-16 08:18:00,
2013-02-16 09:23:00,48.2,41.0,30.02,ESE,107,10.4,10.4,76,0.01,FEW,,0.07,144.0,WeatherDisplay:10.37,2013-02-16 08:23:00,
2013-02-16 09:28:00,48.4,41.2,30.02,ESE,111,10.4,10.4,76,0.01,FEW,,0.07,127.0,WeatherDisplay:10.37,2013-02-16 08:28:00,
2013-02-16 09:33:00,48.5,40.9,30.02,East,100,13.8,13.8,75,0.01,FEW,,0.07,132.0,WeatherDisplay:10.37,2013-02-16 08:33:00,
2013-02-16 09:38:00,48.6,40.7,30.02,ESE,109,13.8,13.8,74,0.01,FEW,,0.07,139.0,WeatherDisplay:10.37,2013-02-16 08:38:00,
2013-02-16 09:43:00,48.7,40.8,30.02,ESE,107,12.7,12.7,74,0.01,FEW,,0.07,171.0,WeatherDisplay:10.37,2013-02-16 08:43:00,
2013-02-16 09:48:00,48.8,40.9,30.02,East,97,9.2,9.2,74,0.01,FEW,,0.07,185.0,WeatherDisplay:10.37,2013-02-16 08:48:00,
2013-02-16 09:53:00,49.0,41.1,30.02,ESE,111,9.2,9.2,74,0.01,FEW,,0.07,162.0,WeatherDisplay:10.37,2013-02-16 08:53:00,
2013-02-16 09:59:00,49.2,40.9,30.03,East,101,10.0,10.0,73,0.01,FEW,,0.07,142.0,WeatherDisplay:10.37,2013-02-16 08:59:00,
2013-02-16 10:04:00,49.3,41.0,30.03,ESE,103,8.1,8.1,73,0.01,FEW,,0.07,151.0,WeatherDisplay:10.37,2013-02-16 09:04:00,
2013-02-16 10:09:00,49.4,41.1,30.03,ESE,115,14.0,14.0,73,0.00,FEW,,0.07,141.0,WeatherDisplay:10.37,2013-02-16 09:09:00,
2013-02-16 10:14:00,49.3,40.7,30.03,East,94,8.1,8.1,72,0.00,FEW,,0.07,197.0,WeatherDisplay:10.37,2013-02-16 09:14:00,
2013-02-16 10:19:00,49.5,40.8,30.03,ENE,78,10.4,10.4,72,0.00,FEW,,0.07,253.0,WeatherDisplay:10.37,2013-02-16 09:19:00,
2013-02-16 10:24:00,49.6,40.9,30.03,ESE,109,13.8,13.8,72,0.00,FEW,,0.07,341.0,WeatherDisplay:10.37,2013-02-16 09:24:00,
2013-02-16 10:29:00,49.8,41.1,30.03,SE,128,8.1,8.1,72,0.00,FEW,,0.07,185.0,WeatherDisplay:10.37,2013-02-16 09:29:00,
2013-02-16 10:34:00,50.1,41.1,30.03,ESE,119,11.5,11.5,71,0.00,FEW,,0.07,527.0,WeatherDisplay:10.37,2013-02-16 09:34:00,
2013-02-16 10:39:00,50.4,41.0,30.03,ESE,121,13.8,13.8,70,0.00,FEW,,0.07,534.0,WeatherDisplay:10.37,2013-02-16 09:39:00,
2013-02-16 10:44:00,50.5,41.4,30.03,ESE,103,15.0,15.0,71,0.00,FEW,,0.07,543.0,WeatherDisplay:10.37,2013-02-16 09:44:00,
2013-02-16 10:49:00,50.4,41.0,30.03,ESE,112,16.1,16.1,70,0.00,FEW,,0.07,541.0,WeatherDisplay:10.37,2013-02-16 09:49:00,
2013-02-16 10:54:00,50.3,40.9,30.03,ESE,108,12.7,12.7,70,0.00,FEW,,0.07,563.0,WeatherDisplay:10.37,2013-02-16 09:54:00,
2013-02-16 10:59:00,50.4,40.2,30.03,ESE,105,16.1,16.1,68,0.00,FEW,,0.07,577.0,WeatherDisplay:10.37,2013-02-16 09:59:00,
2013-02-16 11:04:00,50.7,40.9,30.03,ESE,112,17.3,17.3,69,0.00,FEW,,0.07,601.0,WeatherDisplay:10.37,2013-02-16 10:04:00,
2013-02-16 11:09:00,51.1,40.9,30.03,ESE,107,13.8,13.8,68,0.00,FEW,,0.07,592.0,WeatherDisplay:10.37,2013-02-16 10:09:00,
2013-02-16 11:14:00,50.7,40.5,30.03,East,101,21.9,21.9,68,0.00,FEW,,0.07,603.0,WeatherDisplay:10.37,2013-02-16 10:14:00,
2013-02-16 11:19:00,50.8,41.0,30.04,East,92,17.3,17.3,69,0.00,FEW,,0.07,596.0,WeatherDisplay:10.37,2013-02-16 10:19:00,
2013-02-16 11:24:00,50.8,40.2,30.03,SSE,157,18.4,18.4,67,0.00,FEW,,0.07,605.0,WeatherDisplay:10.37,2013-02-16 10:24:00,
2013-02-16 11:29:00,51.3,41.1,30.03,ENE,78,10.4,10.4,68,0.00,FEW,,0.07,612.0,WeatherDisplay:10.37,2013-02-16 10:29:00,
2013-02-16 11:34:00,51.0,40.4,30.03,East,90,18.4,18.4,67,0.00,FEW,,0.07,355.0,WeatherDisplay:10.37,2013-02-16 10:34:00,
2013-02-16 11:39:00,51.1,40.9,30.03,South,180,11.5,11.5,68,0.00,FEW,,0.07,610.0,WeatherDisplay:10.37,2013-02-16 10:39:00,
2013-02-16 11:44:00,51.2,40.6,30.03,ESE,110,14.0,14.0,67,0.00,FEW,,0.07,621.0,WeatherDisplay:10.37,2013-02-16 10:44:00,
2013-02-16 11:49:00,51.6,41.0,30.03,East,93,12.7,12.7,67,0.00,FEW,,0.07,582.0,WeatherDisplay:10.37,2013-02-16 10:49:00,
2013-02-16 11:54:00,51.4,40.4,30.03,East,98,11.5,11.5,66,0.00,FEW,,0.07,582.0,WeatherDisplay:10.37,2013-02-16 10:54:00,
2013-02-16 11:59:00,51.6,40.2,30.03,East,94,10.4,10.4,65,0.00,FEW,,0.07,573.0,WeatherDisplay:10.37,2013-02-16 10:59:00,
2013-02-16 12:04:00,51.8,40.0,30.03,East,95,16.1,16.1,64,0.00,FEW,,0.07,577.0,WeatherDisplay:10.37,2013-02-16 11:04:00,
2013-02-16 12:09:00,51.8,40.8,30.03,North,350,11.5,11.5,66,0.00,FEW,,0.07,577.0,WeatherDisplay:10.37,2013-02-16 11:09:00,
2013-02-16 12:14:00,52.2,40.8,30.02,ESE,115,11.5,11.5,65,0.00,FEW,,0.07,580.0,WeatherDisplay:10.37,2013-02-16 11:14:00,
2013-02-16 12:19:00,52.5,41.1,30.02,East,83,6.9,6.9,65,0.00,FEW,,0.07,578.0,WeatherDisplay:10.37,2013-02-16 11:19:00,
2013-02-16 12:24:00,52.4,40.6,30.02,ESE,112,11.5,11.5,64,0.00,FEW,,0.07,573.0,WeatherDisplay:10.37,2013-02-16 11:24:00,
2013-02-16 12:29:00,52.7,40.9,30.02,East,89,11.5,11.5,64,0.00,FEW,,0.07,580.0,WeatherDisplay:10.37,2013-02-16 11:29:00,
2013-02-16 12:34:00,52.7,40.9,30.02,SE,143,9.2,9.2,64,0.00,FEW,,0.07,578.0,WeatherDisplay:10.37,2013-02-16 11:34:00,
2013-02-16 12:39:00,53.3,40.6,30.02,SE,124,13.0,13.0,62,0.00,FEW,,0.07,591.0,WeatherDisplay:10.37,2013-02-16 11:39:00,
2013-02-16 12:44:00,52.7,40.0,30.02,ESE,107,15.0,15.0,62,0.00,FEW,,0.07,610.0,WeatherDisplay:10.37,2013-02-16 11:44:00,
2013-02-16 12:49:00,52.7,40.5,30.02,ESE,104,15.0,15.0,63,0.00,FEW,,0.07,617.0,WeatherDisplay:10.37,2013-02-16 11:49:00,
2013-02-16 12:54:00,52.7,40.9,30.02,ESE,111,12.0,12.0,64,0.00,FEW,,0.07,626.0,WeatherDisplay:10.37,2013-02-16 11:54:00,
2013-02-16 12:59:00,52.8,40.5,30.02,ESE,116,11.5,11.5,63,0.00,FEW,,0.07,603.0,WeatherDisplay:10.37,2013-02-16 11:59:00,
2013-02-16 13:04:00,52.6,39.9,30.02,SE,126,15.0,15.0,62,0.00,FEW,,0.07,596.0,WeatherDisplay:10.37,2013-02-16 12:04:00,
2013-02-16 13:09:00,52.6,39.9,30.02,ESE,123,12.7,12.7,62,0.00,FEW,,0.07,596.0,WeatherDisplay:10.37,2013-02-16 12:09:00,
2013-02-16 13:14:00,53.0,40.3,30.02,ESE,118,9.2,9.2,62,0.00,FEW,,0.07,580.0,WeatherDisplay:10.37,2013-02-16 12:14:00,
2013-02-16 13:19:00,53.5,40.8,30.01,SE,128,9.2,9.2,62,0.00,FEW,,0.07,587.0,WeatherDisplay:10.37,2013-02-16 12:19:00,
2013-02-16 13:24:00,53.3,40.2,30.01,SE,130,16.1,16.1,61,0.00,FEW,,0.07,615.0,WeatherDisplay:10.37,2013-02-16 12:24:00,
2013-02-16 13:29:00,53.1,40.4,30.01,ESE,105,13.8,13.8,62,0.00,FEW,,0.07,599.0,WeatherDisplay:10.37,2013-02-16 12:29:00,
2013-02-16 13:34:00,52.8,39.7,30.01,East,94,15.0,15.0,61,0.00,FEW,,0.07,573.0,WeatherDisplay:10.37,2013-02-16 12:34:00,
2013-02-16 13:39:00,53.4,40.3,30.01,SSW,205,15.0,15.0,61,0.00,FEW,,0.07,568.0,WeatherDisplay:10.37,2013-02-16 12:39:00,
2013-02-16 13:44:00,54.0,40.4,30.01,East,94,13.8,13.8,60,0.00,FEW,,0.07,642.0,WeatherDisplay:10.37,2013-02-16 12:44:00,
2013-02-16 13:49:00,54.3,40.7,30.01,ESE,109,14.0,14.0,60,0.00,FEW,,0.07,631.0,WeatherDisplay:10.37,2013-02-16 12:49:00,
2013-02-16 13:54:00,55.2,40.2,30.01,East,84,10.0,10.0,57,0.00,FEW,,0.07,615.0,WeatherDisplay:10.37,2013-02-16 12:54:00,
2013-02-16 13:59:00,54.2,39.3,30.01,ESE,111,16.0,16.0,57,0.00,FEW,,0.07,587.0,WeatherDisplay:10.37,2013-02-16 12:59:00,
2013-02-16 14:04:00,53.6,39.6,30.01,SSE,152,16.1,16.1,59,0.00,FEW,,0.07,550.0,WeatherDisplay:10.37,2013-02-16 13:04:00,
2013-02-16 14:09:00,53.3,39.3,30.01,East,90,15.0,15.0,59,0.00,FEW,,0.07,555.0,WeatherDisplay:10.37,2013-02-16 13:09:00,
2013-02-16 14:14:00,53.1,39.6,30.01,East,96,10.4,10.4,60,0.00,FEW,,0.07,258.0,WeatherDisplay:10.37,2013-02-16 13:14:00,
2013-02-16 14:19:00,53.4,39.9,30.01,ESE,103,16.1,16.1,60,0.00,FEW,,0.07,302.0,WeatherDisplay:10.37,2013-02-16 13:19:00,
2013-02-16 14:24:00,53.5,39.5,30.02,East,92,18.4,18.4,59,0.00,FEW,,0.07,271.0,WeatherDisplay:10.37,2013-02-16 13:24:00,
2013-02-16 14:29:00,53.3,39.3,30.02,ESE,119,17.3,17.3,59,0.00,FEW,,0.07,199.0,WeatherDisplay:10.37,2013-02-16 13:29:00,
2013-02-16 14:34:00,52.8,39.3,30.02,ENE,65,17.3,17.3,60,0.00,FEW,,0.07,243.0,WeatherDisplay:10.37,2013-02-16 13:34:00,
2013-02-16 14:39:00,52.9,39.4,30.02,ENE,76,13.8,13.8,60,0.00,FEW,,0.07,332.0,WeatherDisplay:10.37,2013-02-16 13:39:00,
2013-02-16 14:44:00,53.2,39.7,30.02,ENE,61,10.4,10.4,60,0.00,FEW,,0.07,524.0,WeatherDisplay:10.37,2013-02-16 13:44:00,
2013-02-16 14:49:00,53.5,39.5,30.02,ENE,69,18.4,18.4,59,0.00,CLR,,0.07,464.0,WeatherDisplay:10.37,2013-02-16 13:49:00,
2013-02-16 14:54:00,53.8,40.2,30.02,East,95,10.4,10.4,60,0.00,CLR,,0.07,432.0,WeatherDisplay:10.37,2013-02-16 13:54:00,
2013-02-16 14:59:00,53.7,40.1,30.02,East,96,15.0,15.0,60,0.00,CLR,,0.07,436.0,WeatherDisplay:10.37,2013-02-16 13:59:00,
2013-02-16 15:04:00,53.6,40.0,30.02,WSW,249,10.4,10.4,60,0.00,CLR,,0.07,399.0,WeatherDisplay:10.37,2013-02-16 14:04:00,
2013-02-16 15:09:00,53.9,39.9,30.02,ENE,59,15.0,15.0,59,0.00,CLR,,0.07,304.0,WeatherDisplay:10.37,2013-02-16 14:09:00,
2013-02-16 15:14:00,53.7,39.7,30.02,ESE,103,12.0,12.0,59,0.00,FEW,,0.07,146.0,WeatherDisplay:10.37,2013-02-16 14:14:00,
2013-02-16 15:19:00,53.6,39.6,30.02,SE,132,12.7,12.7,59,0.00,SCT,,0.07,322.0,WeatherDisplay:10.37,2013-02-16 14:19:00,
2013-02-16 15:24:00,53.2,39.2,30.02,ESE,123,10.4,10.4,59,0.00,FEW,,0.07,125.0,WeatherDisplay:10.37,2013-02-16 14:24:00,
2013-02-16 15:29:00,52.7,38.8,30.02,NNE,18,11.5,11.5,59,0.00,FEW,,0.07,121.0,WeatherDisplay:10.37,2013-02-16 14:29:00,
2013-02-16 15:34:00,52.5,39.4,30.02,ESE,119,6.9,6.9,61,0.00,FEW,,0.07,130.0,WeatherDisplay:10.37,2013-02-16 14:34:00,
2013-02-16 15:39:00,52.5,39.0,30.02,ESE,119,11.5,11.5,60,0.00,FEW,,0.07,155.0,WeatherDisplay:10.37,2013-02-16 14:39:00,
2013-02-16 15:44:00,52.7,39.2,30.02,SSW,198,12.7,12.7,60,0.00,FEW,,0.07,309.0,WeatherDisplay:10.37,2013-02-16 14:44:00,
2013-02-16 15:49:00,53.3,39.8,30.02,South,191,8.1,8.1,60,0.00,FEW,,0.07,320.0,WeatherDisplay:10.37,2013-02-16 14:49:00,
2013-02-16 15:54:00,53.4,39.4,30.02,East,100,11.5,11.5,59,0.00,FEW,,0.07,315.0,WeatherDisplay:10.37,2013-02-16 14:54:00,
2013-02-16 15:59:00,52.9,39.4,30.02,ESE,105,14.0,14.0,60,0.00,FEW,,0.07,276.0,WeatherDisplay:10.37,2013-02-16 14:59:00,
2013-02-16 16:04:00,52.7,39.2,30.02,East,99,20.0,20.0,60,0.00,FEW,,0.07,244.0,WeatherDisplay:10.37,2013-02-16 15:04:00,
2013-02-16 16:09:00,52.6,39.5,30.02,ESE,112,13.8,13.8,61,0.00,FEW,,0.07,88.0,WeatherDisplay:10.37,2013-02-16 15:09:00,
2013-02-16 16:14:00,52.4,38.9,30.02,East,84,15.0,15.0,60,0.00,FEW,,0.07,84.0,WeatherDisplay:10.37,2013-02-16 15:14:00,
2013-02-16 16:19:00,52.3,39.2,30.02,ENE,74,11.5,11.5,61,0.00,FEW,,0.07,195.0,WeatherDisplay:10.37,2013-02-16 15:19:00,
2013-02-16 16:24:00,52.4,38.9,30.02,East,90,14.0,14.0,60,0.00,FEW,,0.07,181.0,WeatherDisplay:10.37,2013-02-16 15:24:00,
2013-02-16 16:29:00,52.1,38.6,30.02,East,98,16.1,16.1,60,0.00,FEW,,0.07,104.0,WeatherDisplay:10.37,2013-02-16 15:29:00,
2013-02-16 16:34:00,51.8,38.8,30.03,ESE,107,17.3,17.3,61,0.00,FEW,,0.07,130.0,WeatherDisplay:10.37,2013-02-16 15:34:00,
2013-02-16 16:39:00,51.6,38.6,30.02,ENE,71,16.1,16.1,61,0.00,FEW,,0.07,72.0,WeatherDisplay:10.37,2013-02-16 15:39:00,
2013-02-16 16:44:00,51.5,38.9,30.03,ESE,103,9.0,15.0,62,0.00,SCT,,0.07,53.0,WeatherDisplay:10.37,2013-02-16 15:44:00,
2013-02-16 16:49:00,51.3,38.7,30.03,East,88,13.8,13.8,62,0.00,SCT,,0.07,46.0,WeatherDisplay:10.37,2013-02-16 15:49:00,
2013-02-16 16:54:00,51.2,39.0,30.03,East,95,7.0,16.0,63,0.00,SCT,,0.07,39.0,WeatherDisplay:10.37,2013-02-16 15:54:00,
2013-02-16 16:59:00,51.2,39.0,30.03,East,94,8.0,12.0,63,0.00,SCT,,0.07,30.0,WeatherDisplay:10.37,2013-02-16 15:59:00,
2013-02-16 17:04:00,51.1,38.9,30.03,East,92,13.0,13.0,63,0.00,SCT,,0.07,19.0,WeatherDisplay:10.37,2013-02-16 16:04:00,
2013-02-16 17:09:00,51.0,39.2,30.03,East,99,6.0,14.0,64,0.00,SCT,,0.07,16.0,WeatherDisplay:10.37,2013-02-16 16:09:00,
2013-02-16 17:14:00,50.9,39.1,30.03,ESE,112,10.4,10.4,64,0.00,SCT,,0.07,16.0,WeatherDisplay:10.37,2013-02-16 16:14:00,
2013-02-16 17:19:00,50.8,39.1,30.04,ESE,103,8.0,12.0,64,0.00,SCT,,0.07,12.0,WeatherDisplay:10.37,2013-02-16 16:19:00,
2013-02-16 17:24:00,50.7,39.0,30.04,East,98,10.4,10.4,64,0.00,SCT,,0.07,7.0,WeatherDisplay:10.37,2013-02-16 16:24:00,
2013-02-16 17:29:00,50.6,38.9,30.04,ENE,74,9.2,9.2,64,0.00,SCT,,0.07,0.0,WeatherDisplay:10.37,2013-02-16 16:29:00,
2013-02-16 17:34:00,50.4,39.1,30.04,ESE,108,2.0,12.0,65,0.00,SCT,,0.07,0.0,WeatherDisplay:10.37,2013-02-16 16:34:00,
2013-02-16 17:39:00,50.4,39.1,30.04,ENE,57,8.1,8.1,65,0.00,SCT,,0.07,0.0,WeatherDisplay:10.37,2013-02-16 16:39:00,
2013-02-16 17:44:00,50.4,39.5,30.04,NNW,329,3.5,3.5,66,0.00,SCT,,0.07,0.0,WeatherDisplay:10.37,2013-02-16 16:44:00,
2013-02-16 17:49:00,50.3,39.4,30.04,SSW,204,1.0,5.0,66,0.00,SCT,,0.07,0.0,WeatherDisplay:10.37,2013-02-16 16:49:00,
2013-02-16 17:54:00,50.3,39.4,30.04,SE,134,5.8,5.8,66,0.00,SCT,,0.07,0.0,WeatherDisplay:10.37,2013-02-16 16:54:00,
2013-02-16 17:59:00,50.6,39.7,30.04,NNW,339,3.5,3.5,66,0.00,SCT,,0.07,0.0,WeatherDisplay:10.37,2013-02-16 16:59:00,
2013-02-16 18:04:00,50.6,39.7,30.04,West,264,1.0,4.0,66,0.00,SCT,,0.07,0.0,WeatherDisplay:10.37,2013-02-16 17:04:00,
2013-02-16 18:09:00,50.5,39.6,30.04,SSW,202,3.0,3.0,66,0.00,SCT,,0.07,0.0,WeatherDisplay:10.37,2013-02-16 17:09:00,
2013-02-16 18:14:00,50.6,39.7,30.04,East,94,3.5,3.5,66,0.00,SCT,,0.07,0.0,WeatherDisplay:10.37,2013-02-16 17:14:00,
2013-02-16 18:19:00,50.6,39.7,30.05,SW,236,2.0,6.0,66,0.00,SCT,,0.07,0.0,WeatherDisplay:10.37,2013-02-16 17:19:00,
2013-02-16 18:24:00,50.5,39.6,30.05,WSW,246,2.0,7.0,66,0.00,SCT,,0.07,0.0,WeatherDisplay:10.37,2013-02-16 17:24:00,
2013-02-16 18:29:00,50.4,39.1,30.05,ESE,109,4.0,4.0,65,0.00,SCT,,0.07,0.0,WeatherDisplay:10.37,2013-02-16 17:29:00,
2013-02-16 18:34:00,50.3,39.0,30.05,South,174,1.0,6.0,65,0.00,SCT,,0.07,0.0,WeatherDisplay:10.37,2013-02-16 17:34:00,
2013-02-16 18:39:00,50.2,38.9,30.05,NNE,30,3.5,3.5,65,0.00,SCT,,0.07,0.0,WeatherDisplay:10.37,2013-02-16 17:39:00,
2013-02-16 18:44:00,50.1,38.8,30.05,South,186,4.6,4.6,65,0.00,SCT,,0.07,0.0,WeatherDisplay:10.37,2013-02-16 17:44:00,
2013-02-16 18:49:00,50.1,38.8,30.05,NNE,30,6.9,6.9,65,0.00,SCT,,0.07,0.0,WeatherDisplay:10.37,2013-02-16 17:49:00,
2013-02-16 18:54:00,50.0,38.7,30.05,WSW,246,5.8,5.8,65,0.00,SCT,,0.07,0.0,WeatherDisplay:10.37,2013-02-16 17:54:00,
2013-02-16 18:59:00,49.9,38.6,30.05,East,92,5.8,5.8,65,0.00,SCT,,0.07,0.0,WeatherDisplay:10.37,2013-02-16 17:59:00,
2013-02-16 19:04:00,49.8,38.5,30.05,ENE,66,5.0,9.0,65,0.00,SCT,,0.07,0.0,WeatherDisplay:10.37,2013-02-16 18:04:00,
2013-02-16 19:09:00,49.7,38.4,30.05,NE,56,4.6,4.6,65,0.00,SCT,,0.07,0.0,WeatherDisplay:10.37,2013-02-16 18:09:00,
2013-02-16 19:14:00,49.5,38.6,30.05,NW,321,8.1,8.1,66,0.00,SCT,,0.07,0.0,WeatherDisplay:10.37,2013-02-16 18:14:00,
2013-02-16 19:19:00,49.4,38.5,30.05,East,97,3.0,7.0,66,0.00,SCT,,0.07,0.0,WeatherDisplay:10.37,2013-02-16 18:19:00,
2013-02-16 19:24:00,49.4,38.5,30.05,ESE,103,2.0,8.0,66,0.00,SCT,,0.07,0.0,WeatherDisplay:10.37,2013-02-16 18:24:00,
2013-02-16 19:29:00,49.4,38.5,30.05,South,187,4.6,4.6,66,0.00,SCT,,0.07,0.0,WeatherDisplay:10.37,2013-02-16 18:29:00,
2013-02-16 19:34:00,49.4,38.5,30.05,SSW,196,3.0,9.0,66,0.00,SCT,,0.07,0.0,WeatherDisplay:10.37,2013-02-16 18:34:00,
2013-02-16 19:39:00,49.4,38.1,30.05,ESE,121,3.0,8.0,65,0.00,SCT,,0.07,0.0,WeatherDisplay:10.37,2013-02-16 18:39:00,
2013-02-16 19:44:00,49.4,38.1,30.05,ESE,117,2.0,8.0,65,0.00,SCT,,0.07,0.0,WeatherDisplay:10.37,2013-02-16 18:44:00,
2013-02-16 19:49:00,49.3,38.0,30.05,SSE,153,3.0,8.0,65,0.00,SCT,,0.07,0.0,WeatherDisplay:10.37,2013-02-16 18:49:00,
2013-02-16 19:54:00,49.3,38.1,30.05,SE,137,3.0,5.0,65,0.00,SCT,,0.07,0.0,WeatherDisplay:10.37,2013-02-16 18:54:00,
2013-02-16 19:59:00,49.4,38.1,30.05,SE,128,1.0,7.0,65,0.00,SCT,,0.07,0.0,WeatherDisplay:10.37,2013-02-16 18:59:00,
2013-02-16 20:04:00,49.3,38.0,30.05,SW,236,4.6,4.6,65,0.00,SCT,,0.07,0.0,WeatherDisplay:10.37,2013-02-16 19:04:00,
2013-02-16 20:09:00,49.4,38.1,30.05,SSW,203,2.0,6.0,65,0.00,SCT,,0.07,0.0,WeatherDisplay:10.37,2013-02-16 19:09:00,
2013-02-16 20:14:00,49.5,38.2,30.05,West,273,1.0,5.0,65,0.00,SCT,,0.07,0.0,WeatherDisplay:10.37,2013-02-16 19:14:00,
2013-02-16 20:19:00,49.4,38.1,30.06,WSW,252,3.5,3.5,65,0.00,SCT,,0.07,0.0,WeatherDisplay:10.37,2013-02-16 19:19:00,
2013-02-16 20:24:00,49.4,38.1,30.06,SSW,210,1.0,3.0,65,0.00,SCT,,0.07,0.0,WeatherDisplay:10.37,2013-02-16 19:24:00,
2013-02-16 20:29:00,49.3,38.0,30.06,WSW,241,2.0,5.0,65,0.00,SCT,,0.07,0.0,WeatherDisplay:10.37,2013-02-16 19:29:00,
2013-02-16 20:34:00,49.3,37.6,30.05,SSW,203,2.3,2.3,64,0.00,SCT,,0.07,0.0,WeatherDisplay:10.37,2013-02-16 19:34:00,
2013-02-16 20:39:00,49.3,38.0,30.06,SW,228,1.0,4.0,65,0.00,SCT,,0.07,0.0,WeatherDisplay:10.37,2013-02-16 19:39:00,
2013-02-16 20:44:00,49.3,38.0,30.05,NW,304,2.3,2.5,65,0.00,SCT,,0.07,0.0,WeatherDisplay:10.37,2013-02-16 19:44:00,
2013-02-16 20:49:00,49.2,37.5,30.05,WSW,246,1.0,4.0,64,0.00,BKN,,0.07,0.0,WeatherDisplay:10.37,2013-02-16 19:49:00,
2013-02-16 20:54:00,49.2,37.5,30.05,SSW,210,1.0,4.0,64,0.00,BKN,,0.07,0.0,WeatherDisplay:10.37,2013-02-16 19:54:00,
2013-02-16 20:59:00,49.2,37.5,30.05,East,88,2.3,2.3,64,0.00,BKN,,0.07,0.0,WeatherDisplay:10.37,2013-02-16 19:59:00,
2013-02-16 21:04:00,49.1,37.4,30.05,East,80,1.0,3.0,64,0.00,BKN,,0.07,0.0,WeatherDisplay:10.37,2013-02-16 20:04:00,
2013-02-16 21:09:00,49.0,37.3,30.05,East,83,1.0,3.0,64,0.00,BKN,,0.07,0.0,WeatherDisplay:10.37,2013-02-16 20:09:00,
2013-02-16 21:14:00,48.9,37.6,30.06,SSE,152,1.0,2.0,65,0.00,BKN,,0.07,0.0,WeatherDisplay:10.37,2013-02-16 20:14:00,
2013-02-16 21:19:00,48.9,37.6,30.06,WSW,253,1.0,4.0,65,0.00,BKN,,0.07,0.0,WeatherDisplay:10.37,2013-02-16 20:19:00,
2013-02-16 21:24:00,48.8,37.2,30.06,NE,41,2.3,2.3,64,0.00,BKN,,0.07,0.0,WeatherDisplay:10.37,2013-02-16 20:24:00,
2013-02-16 21:29:00,48.7,37.5,30.06,NNE,12,3.5,3.5,65,0.00,BKN,,0.07,0.0,WeatherDisplay:10.37,2013-02-16 20:29:00,
2013-02-16 21:34:00,48.5,37.7,30.06,NNE,16,2.0,4.0,66,0.00,BKN,,0.07,0.0,WeatherDisplay:10.37,2013-02-16 20:34:00,
2013-02-16 21:39:00,48.5,37.7,30.06,East,100,2.0,2.0,66,0.00,BKN,,0.07,0.0,WeatherDisplay:10.37,2013-02-16 20:39:00,
2013-02-16 21:44:00,48.5,37.3,30.06,NW,307,1.0,5.0,65,0.00,BKN,,0.07,0.0,WeatherDisplay:10.37,2013-02-16 20:44:00,
2013-02-16 21:49:00,48.5,37.3,30.06,SSW,205,1.0,4.0,65,0.00,BKN,,0.07,0.0,WeatherDisplay:10.37,2013-02-16 20:49:00,
2013-02-16 21:54:00,48.5,37.3,30.05,NE,41,3.5,3.5,65,0.00,BKN,,0.07,0.0,WeatherDisplay:10.37,2013-02-16 20:54:00,
2013-02-16 21:59:00,48.5,37.6,30.05,SE,135,1.0,3.0,66,0.00,BKN,,0.07,0.0,WeatherDisplay:10.37,2013-02-16 20:59:00,
2013-02-16 22:04:00,48.2,37.0,30.05,East,90,0.0,6.0,65,0.00,BKN,,0.07,0.0,WeatherDisplay:10.37,2013-02-16 21:04:00,
2013-02-16 22:09:00,48.1,36.9,30.06,SW,229,3.5,3.5,65,0.00,BKN,,0.07,0.0,WeatherDisplay:10.37,2013-02-16 21:09:00,
2013-02-16 22:14:00,47.9,36.7,30.06,SE,126,2.0,5.0,65,0.00,BKN,,0.07,0.0,WeatherDisplay:10.37,2013-02-16 21:14:00,
2013-02-16 22:19:00,47.7,36.9,30.06,NE,53,5.0,5.0,66,0.00,BKN,,0.07,0.0,WeatherDisplay:10.37,2013-02-16 21:19:00,
2013-02-16 22:24:00,47.5,36.7,30.06,NE,45,2.0,6.0,66,0.00,SCT,,0.07,0.0,WeatherDisplay:10.37,2013-02-16 21:24:00,
2013-02-16 22:29:00,47.4,36.6,30.06,East,92,5.0,5.0,66,0.00,SCT,,0.07,0.0,WeatherDisplay:10.37,2013-02-16 21:29:00,
2013-02-16 22:34:00,47.3,36.5,30.06,North,355,2.0,6.0,66,0.00,SCT,,0.07,0.0,WeatherDisplay:10.37,2013-02-16 21:34:00,
2013-02-16 22:39:00,47.2,36.7,30.06,NE,47,2.0,6.0,67,0.00,SCT,,0.07,0.0,WeatherDisplay:10.37,2013-02-16 21:39:00,
2013-02-16 22:44:00,47.1,36.3,30.06,WSW,248,3.5,3.5,66,0.00,SCT,,0.07,0.0,WeatherDisplay:10.37,2013-02-16 21:44:00,
2013-02-16 22:49:00,47.2,36.4,30.06,West,271,3.5,3.5,66,0.00,SCT,,0.07,0.0,WeatherDisplay:10.37,2013-02-16 21:49:00,
2013-02-16 22:54:00,47.1,35.9,30.06,SW,227,2.0,5.0,65,0.00,SCT,,0.07,0.0,WeatherDisplay:10.37,2013-02-16 21:54:00,
2013-02-16 22:59:00,47.1,35.9,30.06,NNE,15,3.5,3.5,65,0.00,SCT,,0.07,0.0,WeatherDisplay:10.37,2013-02-16 21:59:00,
2013-02-16 23:04:00,47.0,35.8,30.06,NNE,13,4.6,4.6,65,0.00,SCT,,0.07,0.0,WeatherDisplay:10.37,2013-02-16 22:04:00,
2013-02-16 23:09:00,47.0,35.8,30.06,SW,231,3.5,3.5,65,0.00,SCT,,0.07,0.0,WeatherDisplay:10.37,2013-02-16 22:09:00,
2013-02-16 23:14:00,47.0,35.8,30.06,ENE,73,2.0,6.0,65,0.00,SCT,,0.07,0.0,WeatherDisplay:10.37,2013-02-16 22:14:00,
2013-02-16 23:19:00,47.0,35.8,30.06,SW,220,3.5,3.5,65,0.00,SCT,,0.07,0.0,WeatherDisplay:10.37,2013-02-16 22:19:00,
2013-02-16 23:24:00,47.0,35.4,30.06,ENE,74,5.8,5.8,64,0.00,SCT,,0.07,0.0,WeatherDisplay:10.37,2013-02-16 22:24:00,
2013-02-16 23:29:00,46.8,35.3,30.06,SW,234,4.6,4.6,64,0.00,SCT,,0.07,0.0,WeatherDisplay:10.37,2013-02-16 22:29:00,
2013-02-16 23:34:00,46.8,35.3,30.06,East,88,5.0,5.0,64,0.00,SCT,,0.07,0.0,WeatherDisplay:10.37,2013-02-16 22:34:00,
2013-02-16 23:40:00,46.8,35.3,30.06,WSW,258,3.5,3.5,64,0.00,SCT,,0.07,0.0,WeatherDisplay:10.37,2013-02-16 22:40:00,
2013-02-16 23:45:00,46.7,35.2,30.06,North,355,5.8,5.8,64,0.00,SCT,,0.07,0.0,WeatherDisplay:10.37,2013-02-16 22:45:00,
2013-02-16 23:50:00,46.6,35.1,30.06,WSW,240,3.5,3.5,64,0.00,SCT,,0.07,0.0,WeatherDisplay:10.37,2013-02-16 22:50:00,
2013-02-16 23:55:00,46.7,35.2,30.06,SSE,148,3.5,3.5,64,0.00,SCT,,0.07,0.0,WeatherDisplay:10.37,2013-02-16 22:55:00,